This demonstration page uses our WeatherBlox Daily Observations layout. Learn more.

Left ArrowRight Arrow

39.01783, -85.05884

Hourly Observations for August 22, 2017

Temp ( °F °C ) Dew Point ( °F °C ) Humidity (%) Winds ( mph kmh ) Pressure ( in mb ) Visibility ( mi km ) Precip ( " mm )
12:52 am 00:52 Cloudy 75 23.9 71 21.7 88 88 S 8 13 30.03 1017 10 16 0.00 0.00
1:52 am 01:52 Cloudy 76 24.4 71 21.7 85 85 S 8 13 30.00 1016 10 16 0.00 0.00
2:52 am 02:52 Partly Cloudy 75 23.9 70 21.1 84 84 SSW 7 11 29.99 1016 10 16 0.00 0.00
3:52 am 03:52 Cloudy 76 24.4 70 21.1 82 82 SSW 8 13 29.97 1015 10 16 0.00 0.00
4:52 am 04:52 Mostly Cloudy 75 23.9 69 20.6 82 82 S 9 15 29.95 1014 10 16 0.00 0.00
5:52 am 05:52 Mostly Cloudy 74 23.3 69 20.6 85 85 SSW 9 15 29.96 1015 10 16 0.00 0.00
6:52 am 06:52 Mostly Cloudy 74 23.3 70 21.1 88 88 SSW 8 13 29.95 1014 10 16 0.00 0.00
7:52 am 07:52 Mostly Cloudy 74 23.3 70 21.1 88 88 SSW 9 15 29.95 1014 10 16 0.00 0.00
8:52 am 08:52 Partly Cloudy 78 25.6 71 21.7 79 79 SSW 12 19 29.95 1014 10 16 0.00 0.00
9:52 am 09:52 Partly Cloudy 79 26.1 73 22.8 82 82 SSW 9 15 29.94 1014 9 14 0.00 0.00
10:52 am 10:52 Mostly Cloudy 83 28.3 75 23.9 77 77 SW 14 22 29.93 1014 9 14 0.00 0.00
11:52 am 11:52 Cloudy 85 29.4 76 24.4 75 75 WSW 10 17 29.93 1014 10 16 0.00 0.00
12:20 pm 12:20 Windy with Storms Likely 79 26.1 75 23.9 88 88 SSW 20 31 29.94 1014 3 4 0.00 0.03
12:22 pm 12:22 Cloudy with Thunderstorms 76 24.4 73 22.8 91 91 SSW 14 22 29.94 1014 1 1 0.00 0.03
12:29 pm 12:29 Cloudy with Thunderstorms 73 22.8 72 22.2 96 96 WSW 8 13 29.94 1014 1 1 0.23 5.84
12:43 pm 12:43 Mostly Cloudy 77 25 75 23.9 94 94 SSW 8 13 29.94 1014 10 16 0.23 5.84
12:52 pm 12:52 Mostly Cloudy 78 25.6 75 23.9 90 90 S 12 19 29.92 1013 9 14 0.23 5.84
1:42 pm 13:42 Mostly Cloudy with Nearby Thunderstorms 79 26.1 75 23.9 88 88 W 10 17 29.91 1013 2 3 0.01 0.25
1:52 pm 13:52 Mostly Cloudy with Heavy Rain 76 24.4 75 23.9 97 97 WNW 12 19 29.92 1013 2 2 0.26 6.60
1:59 pm 13:59 Mostly Cloudy with Strong Thunderstorms 76 24.4 75 23.9 97 97 NW 9 15 29.94 1014 1 1 0.15 3.81
2:10 pm 14:10 Cloudy 78 25.6 76 24.4 93 93 NNW 9 15 29.91 1013 7 11 0.19 4.83
2:52 pm 14:52 Cloudy 81 27.2 73 22.8 77 77 NW 6 9 29.89 1012 10 16 0.19 4.83
3:06 pm 15:06 Cloudy 80 26.7 74 23.3 82 82 NNW 10 17 29.88 1012 10 16 0.00 0.00
3:52 pm 15:52 Mostly Cloudy 80 26.7 72 22.2 76 76 WNW 9 15 29.88 1012 10 16 0.00 0.00
4:52 pm 16:52 Cloudy 78 25.6 69 20.6 74 74 W 12 19 29.89 1012 10 16 0.00 0.03
5:52 pm 17:52 Mostly Cloudy 76 24.4 70 21.1 82 82 WSW 7 11 29.90 1012 10 16 0.00 0.03
6:52 pm 18:52 Mostly Cloudy 76 24.4 70 21.1 82 82 W 6 9 29.89 1012 10 16 0.00 0.00
7:52 pm 19:52 Mostly Cloudy 75 23.9 71 21.7 88 88 WSW 5 7 29.90 1012 10 16 0.00 0.00
8:52 pm 20:52 Mostly Cloudy 72 22.2 71 21.7 97 97 WSW 3 6 29.89 1012 10 16 0.00 0.00
9:52 pm 21:52 Cloudy 72 22.2 72 22.2 100 100 SW 3 6 29.91 1013 10 16 0.00 0.00
10:52 pm 22:52 Cloudy 71 21.7 71 21.7 100 100 WSW 5 7 29.91 1013 10 16 0.00 0.00
11:20 pm 23:20 Mostly Cloudy 71 21.7 71 21.7 100 100 W 5 7 29.91 1013 10 16 0.00 0.00
11:52 pm 23:52 Mostly Cloudy 71 21.7 71 21.7 100 100 W 8 13 29.93 1013 10 16 0.00 0.00

Powered by AerisWeather